Location: Zagreb
(45.8000°N, 16.0000°E)
Time: 11:55:22
(UTC+02:00)

ISS - Visible Passes

Search period start: 28 May 2015 00:00
Search period end: 07 June 2015 00:00
Orbit: 399 x 404 km, 51.6° (Epoch: 28 May)

Date Brightness Start Highest point End Pass type
(mag) Time Alt. Az. Time Alt. Az. Time Alt. Az.
28 May -2.2 01:24:44 42° NNW 01:24:53 43° NNW 01:28:02 10° NE visible
28 May -1.2 02:58:56 10° WNW 03:01:49 28° N 03:04:42 10° ENE visible
28 May -2.4 04:35:28 10° WNW 04:38:41 52° NNE 04:41:54 10° E visible
29 May -2.0 00:32:42 36° NE 00:32:42 36° NE 00:34:50 10° ENE visible
29 May -1.3 02:05:30 10° WNW 02:08:24 28° N 02:11:18 10° ENE visible
29 May -1.8 03:42:16 10° NW 03:45:21 38° NNE 03:48:27 10° E visible
29 May -1.5 23:40:13 23° ENE 23:40:13 23° ENE 23:41:35 10° ENE visible
30 May -1.5 01:12:42 15° WNW 01:14:58 32° N 01:17:58 10° NE visible
30 May -1.4 02:48:59 10° NW 02:51:57 31° N 02:54:55 10° ENE visible
30 May -3.3 04:25:22 10° WNW 04:28:39 89° SW 04:31:55 10° ESE visible
30 May -2.8 22:45:46 39° ESE 22:45:46 39° ESE 22:48:15 10° ENE visible
31 May -2.0 00:18:29 10° W 00:21:35 40° NNW 00:24:41 10° NE visible
31 May -1.2 01:55:39 10° WNW 01:58:31 28° N 02:01:25 10° ENE visible
31 May -2.7 03:32:08 10° WNW 03:35:21 57° NNE 03:38:35 10° ESE visible
31 May -2.3 21:49:15 10° SSW 21:51:58 26° SE 21:54:45 10° E visible
31 May -2.7 23:25:01 10° WSW 23:28:13 56° NNW 23:31:27 10° ENE visible
01 Jun -1.2 01:02:11 10° WNW 01:05:04 28° N 01:07:57 10° ENE visible
01 Jun -1.9 02:38:53 10° NW 02:42:00 40° NNE 02:45:07 10° E visible
01 Jun -3.0 04:15:19 10° WNW 04:18:27 44° SW 04:21:35 10° SE visible
01 Jun -3.4 22:31:40 10° WSW 22:34:55 89° N 22:38:11 10° ENE visible
02 Jun -1.4 00:08:40 10° WNW 00:11:37 31° N 00:14:34 10° NE visible
02 Jun -1.4 01:45:36 10° NW 01:48:35 32° N 01:51:35 10° ENE visible
02 Jun -3.5 03:21:58 10° WNW 03:25:14 79° SSW 03:28:30 10° ESE visible
02 Jun -3.2 21:38:30 10° SW 21:41:40 52° SE 21:44:51 10° ENE visible
02 Jun -1.8 23:15:07 10° W 23:18:11 37° NNW 23:21:16 10° NE visible
03 Jun -1.2 00:52:14 10° WNW 00:55:07 28° N 00:58:02 10° ENE visible
03 Jun -2.9 02:28:41 10° WNW 02:31:56 64° NNE 02:35:10 10° ESE visible
03 Jun -2.1 04:05:30 10° W 04:08:07 22° SW 04:10:42 10° S visible
03 Jun -2.4 22:21:36 10° W 22:24:47 51° NNW 22:27:58 10° ENE visible
03 Jun -1.1 23:58:46 10° WNW 00:01:39 28° N 00:04:31 10° ENE visible
04 Jun -2.1 01:35:25 10° NW 01:38:33 43° NNE 01:41:42 10° E visible
04 Jun -2.9 03:11:53 10° WNW 03:14:57 39° SW 03:18:01 10° SSE visible
04 Jun -3.2 21:28:10 10° WSW 21:31:25 80° NNW 21:34:41 10° ENE visible
04 Jun -1.3 23:05:14 10° WNW 23:08:09 30° N 23:11:05 10° NE visible
05 Jun -1.6 00:42:06 10° NW 00:45:06 33° NNE 00:48:08 10° E visible
05 Jun -2.6 02:18:28 10° WNW 02:20:43 40° WNW 02:20:43 40° WNW visible
05 Jun -1.6 22:11:39 10° W 22:14:40 35° NNW 22:17:44 10° NE visible
05 Jun -1.3 23:48:44 10° WNW 23:51:38 29° N 23:54:33 10° ENE visible
06 Jun -2.8 01:25:09 10° WNW 01:27:52 56° NW 01:27:52 56° NW visible
06 Jun -2.2 21:18:04 10° W 21:21:14 47° NNW 21:24:24 10° NE visible
06 Jun -1.2 22:55:16 10° WNW 22:58:07 28° N 23:01:00 10° ENE visible
